Presure
201 201 196 192 198 201 185 177 195 189 184 127 216 219 207 221 213 207 217 214 233 214 218 221 230 222 214 204 181 182 191 177 168 177 171 188 191 200 200 201 198 207 208 199 192 209 209
216 205 202 202 163 196 201 198 197 194 191 187 215 217 127 214 209 218 230 229 219 220 223 221 210 206 198 186 184 188 177 185 190 184 176 210 208 213 256 213 217 206 200 202 210 203 196
230 212 208 134 204 203 199 203 198 200 192 191 181 190 153 224 127 220 230 224 230 225 222 207 207 205 186 195 184 183 186 184 172 206 213 403 392 179 384 378 367 367 239 266 263 202 200
218 243 125 211 207 209 207 204 204 198 202 188 188 190 159 128 206 228 218 220 236 230 218 200 204 207 204 204 210 183 200 172 211 243 149 375 291 355 357 365 355 349 353 353 267 242 250
249 234 219 247 228 213 207 206 204 198 196 202 192 184 190 193 194 202 200 228 213 238 227 174 154 203 210 205 184 195 194 219 237 406 388 368 354 343 336 332 337 341 337 340 348 365 252
213 237 219 240 251 243 230 213 204 205 201 203 199 197 183 190 189 166 201 219 229 223 156 226 208 203 210 192 207 188 207 252 333 150 374 243 342 335 329 321 318 314 316 322 332 345 357
227 211 200 172 175 193 245 250 228 212 202 206 202 199 197 187 190 188 198 195 206 236 130 238 226 185 211 194 200 201 233 266 344 379 135 343 332 327 321 319 316 314 311 312 317 322 342
206 154 158 232 181 194 193 225 205 249 238 210 204 207 199 198 192 190 190 197 194 203 236 142 228 223 184 201 190 211 228 275 148 368 356 187 325 316 310 310 310 307 308 308 311 312 324
229 134 181 181 218 224 215 239 200 302 253 240 222 205 207 200 199 194 188 191 195 194 198 241 201 223 200 203 197 215 252 188 371 353 335 316 314 321 342 339 345 343 342 334 311 309 316
204 156 187 140 205 219 187 231 203 227 236 256 242 226 207 205 201 199 194 193 191 195 192 199 226 223 215 203 200 220 247 293 223 201 323 310 147 326 321 321 332 343 352 349 334 310 302
147 223 193 127 150 142 202 218 204 188 192 228 262 246 237 215 133 141 197 195 190 194 193 197 227 190 210 192 202 226 239 336 147 286 333 326 322 317 135 312 312 317 338 344 309 301 301
198 223 190 190 153 134 185 184 224 213 224 203 271 222 253 239 165 175 206 198 195 191 196 195 218 198 204 191 201 224 234 331 272 191 318 338 118 301 304 169 295 184 247 344 300 292 294
153 141 138 153 211 220 190 191 218 223 216 176 188 244 193 255 239 225 217 207 197 194 191 198 199 215 203 191 199 222 237 327 217 138 293 324 300 301 293 291 294 300 328 334 292 286 283
243 217 126 137 205 151 144 199 189 215 219 213 172 172 238 205 211 240 232 216 203 201 187 196 195 213 206 187 199 221 233 304 301 137 294 225 320 300 278 284 295 292 298 291 281 276 279
121 234 125 217 131 203 185 224 202 207 209 205 217 236 233 214 199 221 239 228 220 202 193 193 193 210 202 192 192 212 225 272 310 133 299 282 287 302 295 283 290 297 279 282 276 276 278
191 129 196 200 170 213 216 212 223 185 215 223 199 192 231 189 260 191 199 237 228 206 195 189 192 207 202 190 187 208 223 262 297 184 310 305 289 264 275 191 298 294 284 289 280 277 277
128 255 203 223 217 224 215 221 218 215 219 218 222 207 232 178 244 219 250 236 233 221 196 186 194 199 203 190 186 205 218 242 268 297 297 273 297 304 294 275 134 188 312 308 296 293 294
154 268 253 240 227 218 222 216 209 224 230 213 151 207 212 210 240 247 197 217 233 228 201 186 192 195 202 176 183 199 218 208 210 276 297 256 298 158 148 144 139 162 293 299 332 294 306
235 271 147 234 237 229 232 213 161 215 225 227 228 222 208 206 203 182 233 209 238 229 214 190 189 188 203 166 187 197 197 199 239 256 269 291 235 305 306 152 222 309 307 312 316 328 162
255 239 252 122 184 236 207 209 186 217 229 208 223 222 212 214 231 203 216 237 246 229 220 194 187 186 204 177 182 195 202 198 241 229 153 268 291 293 299 295 299 301 163 312 325 324 318
242 252 216 212 217 219 233 227 243 225 237 244 207 223 205 221 206 228 229 239 276 230 226 200 187 185 199 182 176 187 195 203 218 239 161 178 260 289 294 290 296 302 313 324 332 338 340
237 215 220 201 229 229 230 145 243 241 238 234 194 173 229 216 226 209 193 222 214 259 225 211 191 187 195 180 176 188 195 188 205 229 232 245 204 229 271 282 287 291 303 310 320 331 343
236 236 232 229 216 222 235 230 224 152 219 233 220 209 195 210 224 184 221 197 193 209 228 222 197 187 192 191 169 182 185 194 197 212 219 232 241 252 245 259 278 282 291 305 302 285 290
239 230 234 209 212 224 232 227 189 185 238 234 228 189 230 155 167 195 225 229 225 248 211 226 211 189 183 193 172 179 179 182 185 185 205 237 236 233 249 249 249 215 272 271 267 278 275
236 240 233 221 247 256 243 238 239 248 238 242 235 230 236 230 230 197 232 188 218 265 215 201 220 195 184 195 177 174 180 175 186 197 180 215 233 239 228 241 248 246 248 253 258 258 264
248 247 239 228 229 255 246 234 232 237 199 251 240 244 228 250 253 232 222 240 197 237 223 203 228 207 189 186 188 171 173 187 184 185 189 185 204 225 232 237 227 226 243 242 242 246 247
227 228 241 237 248 255 260 252 266 263 227 274 287 285 245 178 238 248 188 240 223 240 272 202 222 221 197 186 196 179 164 182 184 183 176 193 186 201 211 220 227 234 228 235 235 196 177
234 231 224 240 235 253 248 261 245 266 270 266 268 256 282 281 276 238 266 206 233 213 268 266 218 224 200 186 189 185 173 179 184 179 185 180 193 188 209 204 202 215 226 230 225 225 224
244 239 246 254 252 253 259 275 265 269 254 262 252 254 259 264 281 267 269 269 264 219 265 263 226 216 213 191 181 194 180 166 183 183 166 179 180 194 200 194 197 181 206 205 214 218 222
Wind_Speed
43 46 45 43 42 39 39 36 33 32 31 37 25 26 29 29 29 31 32 34 29 36 36 37 37 40 43 44 45 48 52 54 55 64 63 74 77 82 84 85 84 88 93 88 84 87 87
43 47 48 48 41 44 42 40 36 34 32 31 26 27 38 30 31 33 33 32 34 33 34 36 40 43 45 45 46 50 52 57 64 68 65 83 82 85 95 90 92 91 92 94 97 93 92
44 43 45 40 48 46 45 43 40 38 36 35 36 29 33 32 35 32 33 34 32 34 35 42 44 47 42 46 47 51 55 60 55 75 79 43 41 53 41 45 50 55 102 113 112 97 97
34 38 44 46 46 47 46 44 43 41 38 38 37 34 34 37 30 32 31 33 35 37 40 45 45 48 48 49 51 52 58 60 71 78 44 38 44 40 37 39 44 52 54 63 103 104 109
27 30 37 44 47 47 46 45 44 43 42 40 39 38 35 32 31 30 34 34 36 40 43 40 40 47 49 47 48 53 61 67 64 36 35 36 39 40 40 41 42 44 50 57 60 59 116
34 29 32 30 41 45 49 47 45 44 44 43 42 41 40 36 36 37 31 34 38 39 40 48 50 48 49 46 55 55 60 72 65 40 31 36 36 38 41 42 44 48 51 54 53 56 62
40 27 34 34 32 35 40 47 51 49 47 46 46 44 41 41 39 39 36 37 32 42 34 48 51 47 50 48 53 57 69 75 60 29 32 30 32 33 37 42 46 50 53 55 55 54 53
41 39 38 35 36 39 38 39 35 45 52 51 48 48 45 43 43 41 40 38 40 37 45 43 50 53 43 51 50 59 65 80 36 27 26 28 28 30 36 42 46 51 56 58 57 55 50
47 45 40 39 34 36 38 33 43 30 44 47 53 50 48 46 45 45 43 41 40 41 43 44 47 51 45 52 51 61 74 45 37 28 24 25 25 34 38 43 43 47 53 53 56 54 45
46 43 42 42 40 38 39 35 46 35 36 44 47 52 50 49 47 45 46 43 43 42 44 43 50 52 49 51 53 64 73 54 28 31 31 29 34 20 18 16 19 20 24 33 46 48 43
41 50 44 41 40 42 39 39 40 44 47 38 42 47 51 53 43 43 48 46 44 43 44 43 50 46 47 44 52 65 70 56 27 31 33 29 23 13 25 16 20 21 18 24 40 38 37
45 46 43 49 43 43 45 41 43 41 38 43 31 40 47 48 47 48 46 48 45 42 45 43 47 48 46 43 52 62 67 48 45 26 42 31 20 14 16 21 20 14 16 20 32 30 26
49 40 38 36 48 48 47 44 46 44 40 43 42 35 42 43 49 49 49 47 45 44 43 44 41 50 46 42 50 61 69 56 32 22 45 41 22 18 14 15 14 14 10 13 24 23 24
53 51 32 41 49 39 39 48 42 47 47 44 42 39 32 44 44 46 49 48 44 43 43 42 39 47 45 40 50 60 69 60 42 22 45 26 21 17 19 15 13 6 5 10 18 22 24
22 55 27 53 35 50 52 50 48 50 48 47 48 44 36 46 46 43 43 44 44 42 43 40 37 45 42 40 44 54 62 61 52 23 40 39 36 29 17 15 15 10 7 14 21 23 22
39 38 41 48 43 53 53 51 46 45 49 46 46 45 43 49 29 41 41 41 39 41 41 39 36 41 39 37 40 50 57 54 51 21 43 32 30 23 21 11 16 8 3 11 21 23 25
37 57 50 57 54 57 56 54 49 48 48 47 47 52 47 43 35 41 36 41 37 38 41 37 34 36 37 35 36 45 51 58 49 46 42 30 27 25 22 17 14 8 9 17 15 22 27
57 54 57 62 58 57 57 56 53 50 50 49 46 51 52 46 42 36 45 41 39 35 39 39 33 33 34 23 32 39 47 42 26 46 42 28 36 8 10 10 14 12 12 10 10 17 22
48 55 33 57 57 58 58 55 42 53 52 51 48 45 53 53 44 43 37 43 40 35 34 41 33 31 32 23 29 33 34 38 48 40 44 41 23 33 29 9 12 22 18 16 9 8 18
47 48 53 32 52 58 52 52 49 57 57 52 47 45 54 49 46 39 38 39 38 37 35 40 34 29 31 24 25 28 32 33 44 43 14 43 39 37 35 35 33 29 9 21 15 6 12
48 44 44 46 47 49 59 58 58 55 58 59 47 46 48 48 57 45 45 39 40 38 38 38 37 29 27 26 23 24 25 32 37 39 14 6 41 40 37 37 33 30 26 22 17 8 5
50 44 47 47 54 54 57 47 58 58 58 58 55 48 47 49 50 58 42 47 43 37 39 36 40 32 28 24 23 22 21 21 30 37 35 35 13 28 41 39 36 34 30 29 24 21 17
53 55 56 58 52 55 62 62 62 34 57 58 57 56 51 54 49 37 43 44 38 43 42 40 41 36 29 25 21 21 22 17 21 27 31 30 31 32 33 39 39 38 34 32 32 35 34
56 57 59 51 67 61 68 66 58 55 69 64 64 55 59 49 42 48 48 51 45 45 45 43 41 42 33 27 23 25 22 19 14 14 23 30 27 27 31 35 38 17 39 39 39 37 38
60 61 59 55 65 71 66 68 67 72 70 71 69 66 67 62 55 48 52 51 54 47 51 46 44 46 37 32 28 25 24 22 13 13 14 21 27 25 24 31 33 35 37 38 38 37 37
64 63 64 60 60 67 66 65 68 70 63 74 72 76 68 67 68 57 56 57 51 47 53 52 49 47 44 37 33 27 29 18 16 11 10 11 17 23 25 25 24 26 31 33 34 34 33
67 64 68 66 67 66 65 67 67 69 69 70 70 79 74 50 62 68 58 63 66 57 49 55 53 51 50 43 37 32 30 25 19 16 15 10 10 14 14 17 23 25 24 28 28 3 5
74 70 61 70 69 75 72 78 74 76 75 74 70 74 74 77 74 70 72 60 64 61 52 57 57 52 58 51 41 38 33 33 24 22 14 13 8 10 9 9 9 16 21 22 21 21 20
78 75 79 83 81 81 80 82 80 80 78 80 73 78 78 78 72 73 71 66 67 75 56 61 63 62 59 57 49 43 39 35 30 26 29 19 15 7 5 7 6 9 8 10 14 16 16
Wind_Direction
270 270 271 272 273 272 270 267 270 268 265 261 288 287 277 287 280 274 282 269 274 265 269 270 271 267 267 268 268 268 269 271 273 270 273 268 268 266 266 265 264 259 255 256 256 247 243
269 271 273 272 264 274 273 273 269 268 266 265 290 288 264 285 283 286 287 280 269 269 271 268 266 266 268 269 272 271 274 275 274 274 278 271 271 269 264 263 260 260 260 257 251 248 250
271 267 268 255 272 272 272 270 269 269 265 266 264 271 267 294 270 287 289 284 276 270 267 269 269 269 272 274 277 277 280 279 282 279 279 281 275 273 263 256 252 250 253 248 247 250 250
281 273 260 268 269 271 271 271 270 270 271 265 268 270 266 264 298 293 289 285 282 275 270 275 275 275 277 280 283 281 283 286 288 292 277 277 274 266 265 257 250 248 246 244 246 244 240
300 285 280 269 268 269 270 272 270 270 270 271 267 266 270 273 276 290 289 289 284 281 277 279 285 283 284 288 284 288 289 296 308 299 285 276 270 267 265 261 256 253 252 249 249 243 239
295 300 284 283 273 273 270 270 271 271 271 270 269 267 266 270 271 272 284 299 293 289 280 282 282 288 291 290 295 292 298 312 324 284 285 281 272 268 267 264 260 254 252 251 248 246 240
304 293 284 270 270 283 279 273 270 270 270 268 267 268 266 266 269 270 281 277 294 296 282 287 286 290 294 296 298 301 314 325 328 305 282 278 273 267 263 260 259 256 253 250 247 244 242
292 271 273 296 276 283 283 281 277 273 269 267 269 268 267 267 269 270 272 280 281 290 299 282 289 293 296 300 300 311 317 334 290 319 299 294 283 286 276 268 260 255 250 248 245 241 238
294 262 279 278 283 286 275 291 279 278 271 270 266 267 268 268 268 271 271 275 281 285 290 295 293 299 301 304 309 317 329 317 348 343 330 314 306 292 281 273 272 266 258 250 243 240 234
285 276 278 267 283 286 279 295 276 285 282 270 269 265 267 268 269 269 273 275 279 285 287 295 303 305 309 310 316 325 334 339 321 315 340 328 297 325 326 321 329 292 261 246 220 233 230
275 285 280 267 271 268 278 288 271 282 280 283 272 271 268 268 266 266 271 275 277 285 287 295 305 301 312 311 319 331 338 353 290 351 351 334 330 336 296 4 3 342 309 236 216 226 228
274 273 276 276 284 264 275 279 290 286 283 276 303 277 271 270 265 268 270 272 276 280 290 294 307 305 314 315 323 334 341 358 341 325 4 355 285 18 15 301 2 302 299 226 212 223 229
271 276 275 281 275 279 280 279 288 288 277 263 275 282 277 271 270 269 270 270 274 278 283 293 302 311 316 317 324 335 346 356 327 290 2 5 5 16 34 7 6 358 359 193 209 222 228
261 271 262 274 272 269 288 277 272 284 284 281 271 270 288 277 275 269 269 269 270 276 279 290 299 312 316 318 327 339 348 353 355 286 1 352 358 10 0 357 0 13 84 170 208 221 230
267 267 264 260 276 270 271 274 274 276 279 281 285 290 282 277 278 275 269 269 269 271 276 286 296 312 317 320 325 339 348 350 358 275 356 1 9 28 355 4 1 17 203 210 213 226 230
264 260 259 265 277 266 268 268 271 270 276 278 276 276 285 277 290 274 280 268 268 267 273 280 293 309 315 318 323 339 351 352 2 306 360 356 359 356 13 340 2 314 238 236 234 239 238
281 256 257 257 260 259 264 266 267 269 270 272 272 278 285 265 285 271 268 268 267 267 269 276 289 302 313 315 321 340 353 355 3 9 11 0 3 356 358 358 282 327 332 270 234 234 238
281 248 247 251 256 260 263 265 265 270 272 268 251 272 275 277 288 284 274 274 266 265 264 272 283 296 310 304 319 337 355 349 338 16 15 11 17 297 291 280 272 282 351 335 286 249 238
268 249 268 256 256 258 261 265 274 265 268 264 264 263 267 272 266 268 276 271 261 262 260 268 275 285 304 280 318 336 339 348 0 8 24 24 20 29 32 292 9 27 15 358 341 288 258
269 264 254 274 277 261 265 264 269 267 266 264 258 256 262 268 271 267 271 273 252 257 256 262 268 277 296 289 309 333 350 347 3 3 261 31 30 35 35 40 32 24 300 13 3 304 263
266 266 260 260 261 261 265 264 264 266 264 260 252 255 257 264 265 270 269 269 280 250 253 254 262 267 285 286 296 315 336 359 3 6 276 319 37 34 38 42 40 36 31 28 27 13 288
262 270 269 259 266 267 268 283 262 262 260 259 249 250 258 257 264 261 258 262 256 254 248 246 256 259 272 272 286 307 331 332 1 12 11 18 26 44 43 46 47 50 48 47 50 56 65
263 261 264 267 269 272 269 269 267 265 262 262 259 259 252 249 259 252 253 255 250 252 246 244 248 253 260 266 261 287 302 345 2 11 17 17 27 46 55 52 49 55 60 61 65 73 77
265 267 265 269 266 266 267 267 270 260 265 263 260 252 255 246 254 249 251 256 253 267 246 240 239 249 248 255 250 275 282 300 315 338 6 19 26 37 44 59 59 46 58 63 64 68 73
271 268 271 270 273 270 269 265 266 267 263 263 259 258 262 257 252 248 259 252 253 268 248 246 235 241 242 249 247 257 270 275 305 354 314 12 29 35 47 48 58 63 63 61 63 64 68
274 275 273 273 274 273 268 269 266 264 259 261 260 262 253 259 261 253 239 261 247 246 243 241 232 231 240 239 245 240 258 263 275 300 332 323 6 44 46 52 63 64 63 69 66 66 68
280 280 279 277 277 276 275 270 271 266 262 258 254 253 251 234 254 256 252 253 237 250 246 239 231 227 236 235 237 235 240 250 255 266 272 329 323 356 21 49 56 58 69 67 70 58 270
278 281 278 282 283 282 281 277 268 268 265 260 256 254 254 253 250 253 253 248 243 244 238 234 232 225 232 236 231 235 234 248 243 252 252 267 312 308 4 16 28 63 66 65 77 81 85
280 283 285 283 284 282 278 276 270 268 261 260 254 254 253 249 248 246 247 244 246 241 235 229 225 227 224 234 229 228 228 234 239 240 247 251 258 283 305 303 330 293 61 71 81 87 89